Regional Weather Roundup
Issued by NWS Northern Indiana

Home | Current Version | Previous Version | Graphics & Text | Print | Product List | Glossary On
Versions: 1 2 3 4 5 6 7 8 9 10 11 12 13 14 15 16 17 18 19 20 21 22 23 24 25 26 27 28 29 30 31 32 33 34 35 36 37 38 39 40 41 42 43 44 45 46 47 48 49 50
000
ASUS43 KIWX 291310
RWRIWX

KIWX WEATHER ROUNDUP
NATIONAL WEATHER SERVICE NORTHERN INDIANA
900 AM EDT SAT APR 29 2017

NOTE: "FAIR" INDICATES FEW OR NO CLOUDS BELOW 12,000 FEET WITH NO
SIGNIFICANT WEATHER AND/OR OBSTRUCTIONS TO VISIBILITY.

* THESE STATIONS ARE NOT UNDER NWS QUALITY CONTROL. THEY ALSO MAY NOT
  REPORT WEATHER SUCH AS PRECIPITATION OR FOG.

INZ001>027-291400-
NORTHERN INDIANA

CITY           SKY/WX    TMP DP  RH WIND       PRES   REMARKS
GARY*          CLOUDY    46  39  76 N16G30    30.15S
VALPARAISO     CLOUDY    49  44  83 N9        30.10R
MICHIGAN CITY* PTSUNNY   46  45  93 N8        30.12R
LAPORTE*       CLOUDY    48  43  81 NE14      30.10R
KNOX*          CLOUDY    48  28  46 NE14      30.07S
SOUTH BEND     CLOUDY    48  42  80 NE13G21   30.11R
ELKHART*       SUNNY     50  41  71 NE13      30.10R
GOSHEN         CLOUDY    51  42  71 N15       30.10R
MONTICELLO*    LGT RAIN  50  49  95 N8        30.03F
LOGANSPORT*    LGT RAIN  52  52 100 NE10      30.01F
ROCHESTER*     LGT RAIN  54  50  87 NE9       30.04F
WARSAW*        LGT RAIN  52  46  82 N10G17    30.07R
ANGOLA*        CLOUDY    50  36  57 NE10      30.08R
FORT WAYNE     CLOUDY    55  53  93 NE12      30.06R FOG
HUNTINGTON*    DRIZZLE   54  52  95 E6        30.03S
PERU/GRISSOM   LGT RAIN  54  54 100 NE6       30.04R FOG

$$
INZ028>050-291400-
CENTRAL INDIANA

CITY           SKY/WX    TMP DP  RH WIND       PRES   REMARKS
LAFAYETTE      LGT RAIN  51  51 100 NE12      30.03R FOG
KOKOMO*        LGT RAIN  54  53  97 N13       30.04S FOG
MUNCIE*        LGT RAIN  56  54  93 E9        30.02S
INDIANAPOLIS   RAIN      57  56  96 E10       30.00R FOG

$$
MIZ043>046-050>051-056>058-064>065-071>073-077>080-291400-
SOUTHWEST LOWER MICHIGAN

CITY           SKY/WX    TMP DP  RH WIND       PRES   REMARKS
BATTLE CREEK   CLOUDY    47  41  80 NE12      30.13F
BENTON HARBOR  CLOUDY    49  40  71 VRB5      30.13S
COLDWATER*     CLOUDY    48  41  79 N17G23    30.10F
HILLSDALE*     CLOUDY    46  37  71 N12G21    30.09F
HOLLAND        CLOUDY    47  37  68 NE9       30.16F
GRAND RAPIDS   CLOUDY    45  38  76 NE9       30.15F
KALAMAZOO      CLOUDY    48  39  71 NE9G17    30.12F
STURGIS*       CLOUDY    48  42  79 NE16G23   30.10R
THREE RIVERS*  FAIR      48  40  76 NE12G17   30.12S

$$
OHZ001>008-015>018-024>025-291400-
NORTHWEST OHIO

CITY           SKY/WX    TMP DP  RH WIND       PRES   REMARKS
WAUSEON*       CLOUDY    54  52  94 N10G17    30.07R
DEFIANCE       CLOUDY    54  50  86 N12       30.07R
FINDLAY        LGT RAIN  57  54  89 VRB3      30.07R FOG
TOLEDO EXPRESS CLOUDY    54  53  97 NE15      30.08R
TOLEDO METCALF CLOUDY    49  46  90 NE12G24   30.10R
LIMA           LGT RAIN  56  56 100 NE6       30.05R

$$
AND FOR LAKE MICHIGAN COASTAL AND OPEN LAKE BUOY OBSERVATIONS

STATION/POSITION TEMP    WIND        PRES    VSBY  WAVE
                 AIR SEA DIR/SP/G                  HT/PER
                 (F)     (DEG/KT/KT) (MB)    (MI)  (FT/S)
CALUMET HARBOR    45     350/ 17/ 21 1020.1F
MICHIGAN CITY     44      10/ 21/ 23   N/A
BURNS HARBOR      45      20/ 18/ 21 1020.0F
SOUTH LAKE BUOY   42 41   10/ 19/ 21 1021.4          3/ 5
4 MI NW BRIDGMAN  48 48   60/ 14/ 17 1020.7          3/ 4
MICHIGAN CITY     44 46                N/A           4/ 5

$$
&&



USA.gov is the U.S. government's official web portal to all federal, state and local government web resources and services.